Cleveland, Oklahoma, United States (74020)
Lat: 36.31N, Lon: 96.46W
Wx Zone: OKZ059
Local Info
Past Weather Observations for Today

NOTE: This archive is for the closest National Weather Service station to Cleveland. Information may differ from the station used for current weather conditions.

Click here for Long-term Archive

Time Weather Temperature Dewpoint Humidity Pressure Winds Precip Visibility
11:55
Overcast
63°F / 17°C 57°F / 14°C 83% 30.18 in
(1022 mb)
NNW 9.2 mph
(NNW 15 kph)
-
11:35
Overcast
63°F / 17°C 57°F / 14°C 83% 30.18 in
(1022 mb)
NW 10.4 mph
(NW 17 kph)
-
11:15
Overcast
63°F / 17°C 57°F / 14°C 83% 30.18 in
(1022 mb)
NNW 10.4 mph
(NNW 17 kph)
-
10:55
Overcast
61°F / 16°C 57°F / 14°C 88% 30.18 in
(1022 mb)
NNW 11.5 mph
(NNW 19 kph)
-
10:35
Overcast
61°F / 16°C 57°F / 14°C 88% 30.18 in
(1022 mb)
NNW 10.4 mph
(NNW 17 kph)
-
10:15
Overcast
61°F / 16°C 57°F / 14°C 88% 30.18 in
(1022 mb)
NNW 11.5 mph
(NNW 19 kph)
-
09:55
Overcast
59°F / 15°C 55°F / 13°C 88% 30.15 in
(1021 mb)
NNW 11.5 mph
(NNW 19 kph)
-
09:35
Overcast
59°F / 15°C 57°F / 14°C 94% 30.15 in
(1021 mb)
NNW 11.5 mph
(NNW 19 kph)
-
09:15
Overcast
59°F / 15°C 57°F / 14°C 94% 30.15 in
(1021 mb)
NNW 11.5 mph
(NNW 19 kph)
-
08:55
Overcast
59°F / 15°C 57°F / 14°C 94% 30.15 in
(1021 mb)
NNW 11.5 mph
(NNW 19 kph)
-
08:35
Overcast
59°F / 15°C 57°F / 14°C 94% 30.15 in
(1021 mb)
NNW 13.8 mph
(NNW 22 kph)
-
08:15
Overcast
59°F / 15°C 57°F / 14°C 94% 30.12 in
(1020 mb)
N 11.5 mph
(N 19 kph)
-
07:55
Overcast
59°F / 15°C 57°F / 14°C 94% 30.12 in
(1020 mb)
N 13.8 mph
(N 22 kph)
-
07:35
Overcast
59°F / 15°C 59°F / 15°C 100% 30.12 in
(1020 mb)
N 13.8 mph
(N 22 kph)
-
07:15
Overcast
59°F / 15°C 59°F / 15°C 100% 30.09 in
(1019 mb)
N 15 mph
(N 24 kph)
-
06:55
Overcast
61°F / 16°C 61°F / 16°C 100% 30.09 in
(1019 mb)
NNW 12.7 mph
(NNW 20 kph)
-
06:35
Overcast
59°F / 15°C 59°F / 15°C 100% 30.09 in
(1019 mb)
N 9.2 mph
(N 15 kph)
-
06:15
Overcast
59°F / 15°C 59°F / 15°C 100% 30.09 in
(1019 mb)
N 15 mph
(N 24 kph)
-
05:55
Overcast
61°F / 16°C 61°F / 16°C 100% 30.06 in
(1018 mb)
NNW 11.5 mph
(NNW 19 kph)
-
05:35
Overcast
61°F / 16°C 61°F / 16°C 100% 30.06 in
(1018 mb)
N 6.9 mph
(N 11 kph)
-
05:15
Overcast
61°F / 16°C 61°F / 16°C 100% 30.06 in
(1018 mb)
NW 9.2 mph
(NW 15 kph)
-
04:55
Overcast
61°F / 16°C 61°F / 16°C 100% 30.04 in
(1017 mb)
NNW 15 mph
(NNW 24 kph)
-
04:35
Overcast
63°F / 17°C 63°F / 17°C 100% 30.04 in
(1017 mb)
NNW 15 mph
(NNW 24 kph)
-
04:15
Fair
63°F / 17°C 63°F / 17°C 100% 30.04 in
(1017 mb)
NW 9.2 mph
(NW 15 kph)
-
03:55
Fair
63°F / 17°C 63°F / 17°C 100% 30.01 in
(1016 mb)
W 4.6 mph
(W 7 kph)
-
03:35
Overcast
63°F / 17°C 63°F / 17°C 100% 30.01 in
(1016 mb)
Calm -
03:15
Fair
61°F / 16°C 61°F / 16°C 100% 30.01 in
(1016 mb)
Calm -
02:55
Fair
61°F / 16°C 61°F / 16°C 100% 30.01 in
(1016 mb)
Calm -
02:35
Fair
61°F / 16°C 61°F / 16°C 100% 29.98 in
(1015 mb)
Calm -
02:15
Fair
61°F / 16°C 61°F / 16°C 100% 29.98 in
(1015 mb)
Calm -
01:55
Fair
61°F / 16°C 61°F / 16°C 100% 30.01 in
(1016 mb)
Calm -
01:35
Fair
61°F / 16°C 61°F / 16°C 100% 30.01 in
(1016 mb)
Calm -
01:15
Fair
61°F / 16°C 61°F / 16°C 100% 30.01 in
(1016 mb)
Calm -
00:55
Fair
61°F / 16°C 61°F / 16°C 100% 30.01 in
(1016 mb)
Calm -
00:35
Fair
63°F / 17°C 63°F / 17°C 100% 30.01 in
(1016 mb)
Calm -
00:15
Fair
61°F / 16°C 61°F / 16°C 100% 30.01 in
(1016 mb)
Calm -
Time Weather Temperature Dewpoint Humidity Pressure Winds Precip Visibility


Weather for websites

WeatherForYou.com, LLC is not responsible for any damages or problems caused by this service. Current weather conditions are obtained from the closest station including government and personal stations which may have varying degrees of accuracy. Weather forecasts are derived from the NOAA NDFD. Like all things, this site belongs to Jesus Christ... He just trusts us to maintain it. If you have any questions or comments email webmaster@weatherforyou.com

Copyright © 2015, WeatherForYou.com LLC. All rights reserved.